| time (UTC) | temp F | wind direction | speed MPH | gust MPH | rain 1hr in | rain 24hr in | rain mn in | humidity % | barometer mb |
| 20260901161402 | 90 | 203 | 6.0 | 10.0 | 0.00 | 0.00 | 0.00 | 55 | 1014.4 |
| 20260901160402 | 89 | 203 | 8.0 | 10.0 | 0.00 | 0.00 | 0.00 | 55 | 1014.4 |
| 20260901155402 | 89 | 203 | 7.0 | 12.0 | 0.00 | 0.00 | 0.00 | 56 | 1014.4 |
| 20260901154402 | 88 | 203 | 7.0 | 12.0 | 0.00 | 0.00 | 0.00 | 57 | 1014.4 |
| 20260901153402 | 87 | 203 | 5.0 | 6.0 | 0.00 | 0.00 | 0.00 | 58 | 1014.3 |
| 20260901152402 | 86 | 180 | 4.0 | 8.0 | 0.00 | 0.00 | 0.00 | 60 | 1014.3 |
| 20260901151402 | 86 | 158 | 5.0 | 9.0 | 0.00 | 0.00 | 0.00 | 60 | 1014.3 |
| 20260901150402 | 85 | 158 | 3.0 | 6.0 | 0.00 | 0.00 | 0.00 | 62 | 1014.2 |
| 20260901145403 | 84 | 180 | 4.0 | 8.0 | 0.00 | 0.00 | 0.00 | 64 | 1014.4 |
| 20260901144402 | 83 | 180 | 6.0 | 10.0 | 0.00 | 0.00 | 0.00 | 64 | 1014.4 |
| 20260901143402 | 82 | 203 | 4.0 | 7.0 | 0.00 | 0.00 | 0.00 | 66 | 1014.3 |
| 20260901142402 | 82 | 225 | 2.0 | 3.0 | 0.00 | 0.00 | 0.00 | 68 | 1014.4 |
| 20260901141402 | 81 | 225 | 3.0 | 5.0 | 0.00 | 0.00 | 0.00 | 70 | 1014.4 |
| 20260901140402 | 80 | 203 | 6.0 | 9.0 | 0.00 | 0.00 | 0.00 | 70 | 1014.4 |
| 20260901135402 | 79 | 203 | 5.0 | 8.0 | 0.00 | 0.00 | 0.00 | 71 | 1014.4 |
| 20260901134402 | 78 | 203 | 4.0 | 6.0 | 0.00 | 0.00 | 0.00 | 72 | 1014.4 |
| 20260901133402 | 77 | 158 | 4.0 | 6.0 | 0.00 | 0.00 | 0.00 | 72 | 1014.4 |
| 20260901132402 | 77 | 180 | 2.0 | 3.0 | 0.00 | 0.00 | 0.00 | 73 | 1014.3 |
| 20260901131422 | 76 | 180 | 4.0 | 5.0 | 0.00 | 0.00 | 0.00 | 74 | 1014.3 |
| 20260901130402 | 75 | 180 | 1.0 | 4.0 | 0.00 | 0.00 | 0.00 | 75 | 1014.1 |
| 20260901125422 | 75 | 158 | 1.0 | 2.0 | 0.00 | 0.00 | 0.00 | 77 | 1014.0 |
| 20260901124402 | 74 | 203 | 2.0 | 3.0 | 0.00 | 0.00 | 0.00 | 77 | 1014.1 |
| 20260901123402 | 73 | 158 | 2.0 | 3.0 | 0.00 | 0.00 | 0.00 | 77 | 1013.9 |
| 20260901122401 | 73 | 158 | 2.0 | 4.0 | 0.00 | 0.00 | 0.00 | 78 | 1013.8 |
| 20260901121402 | 72 | 158 | 1.0 | 4.0 | 0.00 | 0.00 | 0.00 | 78 | 1013.9 |
| 20260901120401 | 72 | 158 | 1.0 | 3.0 | 0.00 | 0.00 | 0.00 | 79 | 1013.8 |
| 20260901115401 | 72 | 158 | 1.0 | 2.0 | 0.00 | 0.00 | 0.00 | 78 | 1013.7 |
| 20260901114402 | 72 | 158 | 1.0 | 2.0 | 0.00 | 0.00 | 0.00 | 78 | 1013.7 |
| 20260901113402 | 72 | 180 | 2.0 | 4.0 | 0.00 | 0.00 | 0.00 | 77 | 1013.7 |
| 20260901112422 | 73 | 180 | 2.0 | 5.0 | 0.00 | 0.00 | 0.00 | 76 | 1013.5 |
| 20260901111303 | 74 | 0.0 | 1.0 | 0.00 | 0.00 | 0.00 | 74 | 1013.6 | |
| 20260901110344 | 74 | 180 | 2.0 | 4.0 | 0.00 | 0.00 | 0.00 | 75 | 1013.4 |
| 20260901105305 | 74 | 0.0 | 1.0 | 0.00 | 0.00 | 0.00 | 73 | 1013.4 | |
| 20260901104304 | 75 | 203 | 1.0 | 1.0 | 0.00 | 0.00 | 0.00 | 72 | 1013.3 |
| 20260901103304 | 75 | 203 | 1.0 | 1.0 | 0.00 | 0.00 | 0.00 | 72 | 1013.4 |
| 20260901102306 | 75 | 203 | 3.0 | 6.0 | 0.00 | 0.00 | 0.00 | 71 | 1013.3 |
| 20260901101323 | 75 | 180 | 2.0 | 6.0 | 0.00 | 0.00 | 0.00 | 71 | 1013.3 |
| 20260901100324 | 75 | 203 | 2.0 | 3.0 | 0.00 | 0.00 | 0.00 | 71 | 1013.2 |
| 20260901095306 | 75 | 203 | 2.0 | 4.0 | 0.00 | 0.00 | 0.00 | 71 | 1013.1 |
| 20260901094304 | 75 | 180 | 2.0 | 3.0 | 0.00 | 0.00 | 0.00 | 71 | 1013.1 |
| 20260901093324 | 76 | 180 | 2.0 | 3.0 | 0.00 | 0.00 | 0.00 | 70 | 1013.1 |
| 20260901092305 | 76 | 158 | 3.0 | 5.0 | 0.00 | 0.00 | 0.00 | 70 | 1013.0 |
| 20260901091303 | 76 | 203 | 3.0 | 6.0 | 0.00 | 0.00 | 0.00 | 70 | 1012.9 |
| 20260901090303 | 76 | 158 | 3.0 | 7.0 | 0.00 | 0.00 | 0.00 | 70 | 1012.8 |
| 20260901085305 | 76 | 180 | 2.0 | 4.0 | 0.00 | 0.00 | 0.00 | 70 | 1012.7 |
| 20260901084303 | 76 | 158 | 3.0 | 7.0 | 0.00 | 0.00 | 0.00 | 70 | 1012.5 |
| 20260901083303 | 75 | 180 | 3.0 | 5.0 | 0.00 | 0.00 | 0.00 | 73 | 1012.5 |
| 20260901082306 | 74 | 0.0 | 0.0 | 0.00 | 0.00 | 0.00 | 74 | 1012.4 | |
| 20260901081325 | 75 | 0.0 | 1.0 | 0.00 | 0.00 | 0.00 | 70 | 1012.4 | |
| 20260901080303 | 75 | 0.0 | 1.0 | 0.00 | 0.00 | 0.00 | 70 | 1012.4 | |
| 20260901075324 | 74 | 0.0 | 2.0 | 0.00 | 0.00 | 0.00 | 74 | 1012.5 | |
| 20260901074303 | 74 | 158 | 1.0 | 2.0 | 0.00 | 0.00 | 0.00 | 74 | 1012.4 |
| 20260901073303 | 74 | 0.0 | 0.0 | 0.00 | 0.00 | 0.00 | 74 | 1012.4 | |
| 20260901072308 | 75 | 158 | 1.0 | 3.0 | 0.00 | 0.00 | 0.00 | 71 | 1012.5 |
| 20260901071303 | 75 | 0.0 | 1.0 | 0.00 | 0.00 | 0.00 | 71 | 1012.5 | |
| 20260901070323 | 75 | 0.0 | 0.0 | 0.00 | 0.00 | 0.00 | 72 | 1012.5 | |
| 20260901065305 | 75 | 0.0 | 1.0 | 0.00 | 0.00 | 0.00 | 71 | 1012.5 | |
| 20260901064303 | 75 | 0.0 | 1.0 | 0.00 | 0.00 | 0.00 | 72 | 1012.4 | |
| 20260901063324 | 76 | 0.0 | 1.0 | 0.00 | 0.00 | 0.00 | 70 | 1012.5 | |
| 20260901062309 | 77 | 0.0 | 1.0 | 0.00 | 0.00 | 0.00 | 68 | 1012.7 | |
| 20260901061303 | 77 | 0.0 | 1.0 | 0.00 | 0.00 | 0.00 | 67 | 1012.7 | |
| 20260901060303 | 79 | 203 | 1.0 | 2.0 | 0.00 | 0.00 | 0.00 | 64 | 1012.7 |
| 20260901055306 | 79 | 180 | 1.0 | 2.0 | 0.00 | 0.00 | 0.00 | 63 | 1012.7 |
| 20260901054303 | 79 | 0.0 | 1.0 | 0.00 | 0.00 | 0.00 | 64 | 1012.6 | |
| 20260901053303 | 79 | 203 | 1.0 | 2.0 | 0.00 | 0.00 | 0.00 | 65 | 1012.5 |
| 20260901052306 | 78 | 180 | 2.0 | 3.0 | 0.00 | 0.00 | 0.00 | 66 | 1012.5 |
| 20260901051303 | 79 | 180 | 1.0 | 2.0 | 0.00 | 0.00 | 0.00 | 63 | 1012.5 |
| 20260901050303 | 78 | 180 | 1.0 | 2.0 | 0.00 | 0.00 | 0.00 | 65 | 1012.5 |
| 20260901045403 | 78 | 0.0 | 0.0 | 0.00 | 0.00 | 0.00 | 65 | 1012.3 | |
| 20260901044424 | 79 | 0.0 | 1.0 | 0.00 | 0.00 | 0.00 | 64 | 1012.4 | |
| 20260901043402 | 80 | 180 | 1.0 | 2.0 | 0.00 | 0.00 | 0.00 | 64 | 1012.4 |
| 20260901042402 | 80 | 0.0 | 3.0 | 0.00 | 0.00 | 0.00 | 63 | 1012.4 | |
| 20260901041403 | 80 | 0.0 | 1.0 | 0.00 | 0.00 | 0.00 | 62 | 1012.2 | |
| 20260901040404 | 81 | 158 | 1.0 | 2.0 | 0.00 | 0.00 | 0.00 | 62 | 1012.2 |
| 20260901035424 | 82 | 158 | 1.0 | 2.0 | 0.00 | 0.00 | 0.00 | 60 | 1012.3 |
| 20260901034403 | 82 | 135 | 1.0 | 2.0 | 0.00 | 0.00 | 0.00 | 60 | 1012.1 |
| 20260901033403 | 82 | 135 | 1.0 | 2.0 | 0.00 | 0.00 | 0.00 | 60 | 1012.0 |
| 20260901032403 | 82 | 158 | 2.0 | 6.0 | 0.00 | 0.00 | 0.00 | 61 | 1012.0 |
| 20260901031403 | 82 | 135 | 3.0 | 7.0 | 0.00 | 0.00 | 0.00 | 61 | 1011.9 |
| 20260901030403 | 82 | 135 | 1.0 | 3.0 | 0.00 | 0.00 | 0.00 | 63 | 1011.8 |
| 20260901025405 | 82 | 135 | 3.0 | 5.0 | 0.00 | 0.00 | 0.00 | 62 | 1011.8 |
| 20260901024403 | 82 | 158 | 3.0 | 5.0 | 0.00 | 0.00 | 0.00 | 63 | 1011.7 |
| 20260901023403 | 81 | 0.0 | 2.0 | 0.00 | 0.00 | 0.00 | 65 | 1011.7 | |
| 20260901022403 | 82 | 158 | 2.0 | 4.0 | 0.00 | 0.00 | 0.00 | 63 | 1011.5 |
| 20260901021423 | 83 | 158 | 1.0 | 2.0 | 0.00 | 0.00 | 0.00 | 63 | 1011.3 |
| 20260901020403 | 84 | 135 | 1.0 | 4.0 | 0.00 | 0.00 | 0.00 | 63 | 1011.2 |
| 20260901015423 | 83 | 158 | 1.0 | 2.0 | 0.00 | 0.00 | 0.00 | 65 | 1011.2 |
| 20260901014423 | 83 | 135 | 1.0 | 3.0 | 0.00 | 0.00 | 0.00 | 67 | 1011.1 |
| 20260901013423 | 83 | 180 | 1.0 | 2.0 | 0.00 | 0.00 | 0.00 | 68 | 1010.9 |
| 20260901012403 | 83 | 0.0 | 0.0 | 0.00 | 0.00 | 0.00 | 72 | 1010.8 | |
| 20260901011423 | 83 | 0.0 | 0.0 | 0.00 | 0.00 | 0.00 | 73 | 1010.8 | |
| 20260901010403 | 84 | 0.0 | 1.0 | 0.00 | 0.00 | 0.00 | 73 | 1010.7 | |
| 20260901005404 | 85 | 0.0 | 1.0 | 0.00 | 0.00 | 0.00 | 74 | 1010.7 | |
| 20260901004403 | 86 | 0.0 | 0.0 | 0.00 | 0.00 | 0.00 | 72 | 1010.6 | |
| 20260901003404 | 87 | 0.0 | 0.0 | 0.00 | 0.00 | 0.00 | 67 | 1010.6 | |
| 20260901002403 | 89 | 0.0 | 0.0 | 0.00 | 0.00 | 0.00 | 67 | 1010.7 | |
| 20260901001403 | 90 | 0.0 | 0.0 | 0.00 | 0.00 | 0.00 | 65 | 1010.8 | |
| 20260901000423 | 91 | 0.0 | 0.0 | 0.00 | 0.00 | 0.00 | 57 | 1010.8 | |
| 20260831235403 | 91 | 180 | 1.0 | 1.0 | 0.00 | 0.00 | 0.00 | 53 | 1010.7 |
| 20260831234403 | 93 | 0.0 | 1.0 | 0.00 | 0.00 | 0.00 | 50 | 1010.8 | |
| 20260831233403 | 94 | 203 | 2.0 | 2.0 | 0.00 | 0.00 | 0.00 | 46 | 1010.8 |
| 20260831232403 | 94 | 203 | 2.0 | 3.0 | 0.00 | 0.00 | 0.00 | 47 | 1010.8 |
| 20260831231403 | 95 | 158 | 2.0 | 6.0 | 0.00 | 0.00 | 0.00 | 47 | 1010.9 |
| 20260831230403 | 96 | 180 | 3.0 | 6.0 | 0.00 | 0.00 | 0.00 | 44 | 1010.8 |
| 20260831225402 | 96 | 225 | 3.0 | 4.0 | 0.00 | 0.00 | 0.00 | 42 | 1010.7 |
| 20260831224403 | 96 | 135 | 4.0 | 7.0 | 0.00 | 0.00 | 0.00 | 43 | 1010.8 |
| 20260831223423 | 97 | 203 | 4.0 | 5.0 | 0.00 | 0.00 | 0.00 | 42 | 1010.9 |
| 20260831222403 | 98 | 225 | 4.0 | 7.0 | 0.00 | 0.00 | 0.00 | 42 | 1010.9 |
| 20260831221403 | 97 | 225 | 4.0 | 6.0 | 0.00 | 0.00 | 0.00 | 41 | 1011.0 |
| 20260831220403 | 98 | 203 | 4.0 | 8.0 | 0.00 | 0.00 | 0.00 | 42 | 1011.0 |
| 20260831215403 | 98 | 180 | 6.0 | 9.0 | 0.00 | 0.00 | 0.00 | 41 | 1010.9 |
| 20260831214402 | 98 | 203 | 4.0 | 7.0 | 0.00 | 0.00 | 0.00 | 42 | 1011.1 |
| 20260831213423 | 98 | 203 | 5.0 | 8.0 | 0.00 | 0.00 | 0.00 | 41 | 1011.0 |
| 20260831212402 | 98 | 225 | 6.0 | 9.0 | 0.00 | 0.00 | 0.00 | 43 | 1011.0 |
| 20260831211402 | 98 | 203 | 7.0 | 10.0 | 0.00 | 0.00 | 0.00 | 42 | 1011.1 |
| 20260831210523 | 98 | 225 | 6.0 | 10.0 | 0.00 | 0.00 | 0.00 | 44 | 1011.1 |
| 20260831205403 | 98 | 225 | 7.0 | 10.0 | 0.00 | 0.00 | 0.00 | 42 | 1011.2 |
| 20260831204402 | 98 | 225 | 4.0 | 8.0 | 0.00 | 0.00 | 0.00 | 44 | 1011.3 |
| 20260831203402 | 98 | 203 | 5.0 | 13.0 | 0.00 | 0.00 | 0.00 | 45 | 1011.4 |
| 20260831202403 | 97 | 203 | 7.0 | 8.0 | 0.00 | 0.00 | 0.00 | 44 | 1011.4 |
| 20260831201402 | 98 | 225 | 6.0 | 10.0 | 0.00 | 0.00 | 0.00 | 45 | 1011.5 |
| 20260831200402 | 97 | 225 | 7.0 | 9.0 | 0.00 | 0.00 | 0.00 | 44 | 1011.5 |
| 20260831195402 | 97 | 203 | 7.0 | 11.0 | 0.00 | 0.00 | 0.00 | 45 | 1011.5 |
| 20260831194402 | 97 | 225 | 11.0 | 15.0 | 0.00 | 0.00 | 0.00 | 44 | 1011.5 |
| 20260831193402 | 97 | 203 | 6.0 | 11.0 | 0.00 | 0.00 | 0.00 | 46 | 1011.6 |
| 20260831192443 | 97 | 203 | 7.0 | 11.0 | 0.00 | 0.00 | 0.00 | 46 | 1011.6 |
| 20260831191422 | 96 | 225 | 8.0 | 11.0 | 0.00 | 0.00 | 0.00 | 45 | 1011.8 |
| 20260831190422 | 96 | 203 | 6.0 | 9.0 | 0.00 | 0.00 | 0.00 | 45 | 1011.8 |
| 20260831185423 | 96 | 248 | 10.0 | 17.0 | 0.00 | 0.00 | 0.00 | 48 | 1011.8 |
| 20260831184402 | 96 | 225 | 5.0 | 8.0 | 0.00 | 0.00 | 0.00 | 47 | 1011.8 |
| 20260831183402 | 95 | 203 | 10.0 | 16.0 | 0.00 | 0.00 | 0.00 | 48 | 1012.0 |
| 20260831182402 | 95 | 203 | 11.0 | 15.0 | 0.00 | 0.00 | 0.00 | 49 | 1012.1 |
| 20260831181403 | 94 | 203 | 8.0 | 11.0 | 0.00 | 0.00 | 0.00 | 50 | 1012.1 |
| 20260831180402 | 94 | 203 | 8.0 | 12.0 | 0.00 | 0.00 | 0.00 | 49 | 1012.4 |
| 20260831175402 | 93 | 203 | 9.0 | 14.0 | 0.00 | 0.00 | 0.00 | 51 | 1012.4 |
| 20260831174422 | 92 | 225 | 7.0 | 12.0 | 0.00 | 0.00 | 0.00 | 52 | 1012.4 |
| 20260831173402 | 92 | 203 | 6.0 | 8.0 | 0.00 | 0.00 | 0.00 | 55 | 1012.6 |
| 20260831172402 | 91 | 203 | 9.0 | 14.0 | 0.00 | 0.00 | 0.00 | 54 | 1012.7 |
| 20260831171402 | 91 | 225 | 7.0 | 13.0 | 0.00 | 0.00 | 0.00 | 56 | 1012.9 |
| 20260831170402 | 91 | 225 | 9.0 | 12.0 | 0.00 | 0.00 | 0.00 | 55 | 1012.9 |
| 20260831165402 | 91 | 225 | 7.0 | 13.0 | 0.00 | 0.00 | 0.00 | 56 | 1013.1 |
| 20260831164422 | 90 | 225 | 7.0 | 11.0 | 0.00 | 0.00 | 0.00 | 56 | 1013.1 |
| 20260831163402 | 90 | 225 | 7.0 | 10.0 | 0.00 | 0.00 | 0.00 | 56 | 1013.1 |
| 20260831162402 | 90 | 203 | 4.0 | 7.0 | 0.00 | 0.00 | 0.00 | 57 | 1013.2 |